time, Switch, Flow(0), Analog(2)
yyyy/mm/dd HH:MM:SS.fff, True=FILTERED|False=TOTAL, L/min, V
2023/07/06 14:00:04.966, True, 1.327, 0.152361
2023/07/06 14:00:05.462, True, 1.011, 0.153811
2023/07/06 14:00:05.966, True, 0.995, 0.153506
2023/07/06 14:00:06.470, True, 0.663, 0.152514
2023/07/06 14:00:06.966, True, 1.011, 0.153048
2023/07/06 14:00:07.470, True, 0.663, 0.151598
2023/07/06 14:00:07.974, True, 0.663, 0.150149
2023/07/06 14:00:08.470, True, 1.011, 0.152667
2023/07/06 14:00:08.974, True, 0.663, 0.150835
2023/07/06 14:00:09.478, True, 0.663, 0.151217
2023/07/06 14:00:09.974, True, 1.013, 0.152209
2023/07/06 14:00:10.478, True, 0.662, 0.152361
2023/07/06 14:00:10.982, True, 0.663, 0.153506
2023/07/06 14:00:11.478, True, 0.674, 0.149615
2023/07/06 14:00:11.982, True, 0.995, 0.150225
2023/07/06 14:00:12.486, True, 0.663, 0.153124
2023/07/06 14:00:12.982, True, 0.674, 0.152361
2023/07/06 14:00:13.486, True, 0.663, 0.152056
2023/07/06 14:00:13.990, True, 0.995, 0.151217
2023/07/06 14:00:14.486, True, 0.674, 0.150149
2023/07/06 14:00:14.990, True, 0.663, 0.151217
2023/07/06 14:00:15.486, True, 1.011, 0.152819
2023/07/06 14:00:15.990, True, 0.663, 0.153735
2023/07/06 14:00:16.494, True, 0.663, 0.153277
2023/07/06 14:00:16.998, True, 0.996, 0.151827
2023/07/06 14:00:17.494, True, 0.673, 0.151904
2023/07/06 14:00:17.998, True, 0.663, 0.151827
2023/07/06 14:00:18.494, True, 0.674, 0.151827
2023/07/06 14:00:18.998, True, 0.663, 0.151064
2023/07/06 14:00:19.502, True, 0.663, 0.154116
2023/07/06 14:00:20.006, True, 0.663, 0.151369
2023/07/06 14:00:20.502, True, 1.011, 0.151598
2023/07/06 14:00:21.006, True, 0.663, 0.151446
2023/07/06 14:00:21.509, True, 0.665, 0.151675
2023/07/06 14:00:22.006, True, 1.009, 0.152895
2023/07/06 14:00:22.510, True, 0.664, 0.150988
2023/07/06 14:00:23.014, True, 0.663, 0.150835
2023/07/06 14:00:23.510, True, 0.674, 0.150683
2023/07/06 14:00:24.014, True, 0.664, 0.152285
2023/07/06 14:00:24.518, True, 0.994, 0.151751
2023/07/06 14:00:25.013, True, 0.674, 0.151064
2023/07/06 14:00:25.518, True, 0.663, 0.151217
2023/07/06 14:00:26.022, True, 0.664, 0.152361
2023/07/06 14:00:26.518, True, 0.673, 0.151751
2023/07/06 14:00:27.022, True, 0.995, 0.152667
2023/07/06 14:00:27.526, True, 0.664, 0.152667
2023/07/06 14:00:28.022, True, 0.673, 0.153124
2023/07/06 14:00:28.526, True, 0.664, 0.150225
2023/07/06 14:00:29.022, True, 0.674, 0.152590
2023/07/06 14:00:29.526, True, 0.663, 0.152743
2023/07/06 14:00:30.030, True, 0.663, 0.149767
2023/07/06 14:00:30.526, True, 1.013, 0.151751
2023/07/06 14:00:31.030, True, 0.662, 0.152667
2023/07/06 14:00:31.534, True, 0.663, 0.151369
2023/07/06 14:00:32.030, True, 1.011, 0.153048
2023/07/06 14:00:32.534, True, 0.663, 0.150835
2023/07/06 14:00:33.038, True, 0.663, 0.153353
2023/07/06 14:00:33.534, True, 0.674, 0.152285
2023/07/06 14:00:34.038, True, 0.995, 0.152743
2023/07/06 14:00:34.542, True, 0.663, 0.151064
2023/07/06 14:00:35.037, True, 0.674, 0.151293
2023/07/06 14:00:35.542, True, 0.664, 0.153277
2023/07/06 14:00:36.046, True, 0.993, 0.152895
2023/07/06 14:00:36.542, True, 0.674, 0.152209
2023/07/06 14:00:37.046, True, 0.664, 0.154421
2023/07/06 14:00:37.550, True, 0.663, 0.151980
2023/07/06 14:00:38.046, True, 1.010, 0.153048
2023/07/06 14:00:38.550, True, 0.663, 0.153124
2023/07/06 14:00:39.054, True, 0.663, 0.149004
2023/07/06 14:00:39.550, True, 0.674, 0.152438
2023/07/06 14:00:40.054, True, 0.663, 0.150301
2023/07/06 14:00:40.558, True, 0.996, 0.152056
2023/07/06 14:00:41.054, True, 0.673, 0.152056
2023/07/06 14:00:41.558, True, 0.663, 0.153048
2023/07/06 14:00:42.054, True, 0.675, 0.152667
2023/07/06 14:00:42.558, True, 0.662, 0.152132
2023/07/06 14:00:43.062, True, 0.995, 0.151598
2023/07/06 14:00:43.558, True, 0.675, 0.153429
2023/07/06 14:00:44.062, True, 0.662, 0.152972
2023/07/06 14:00:44.566, True, 0.664, 0.155718
2023/07/06 14:00:45.070, True, 0.993, 0.152667
2023/07/06 14:00:45.566, True, 0.675, 0.152819
2023/07/06 14:00:46.070, True, 0.663, 0.151827
2023/07/06 14:00:46.573, True, 0.662, 0.150378
2023/07/06 14:00:47.070, True, 1.011, 0.153201
2023/07/06 14:00:47.574, True, 0.663, 0.152132
2023/07/06 14:00:48.078, True, 0.664, 0.151369
2023/07/06 14:00:48.574, True, 0.673, 0.151598
2023/07/06 14:00:49.078, True, 0.664, 0.152514
2023/07/06 14:00:49.582, True, 0.995, 0.152209
2023/07/06 14:00:50.078, True, 0.674, 0.151293
2023/07/06 14:00:50.582, True, 0.662, 0.150759
2023/07/06 14:00:51.086, True, 0.663, 0.152667
2023/07/06 14:00:51.590, True, 0.663, 0.155184
2023/07/06 14:00:52.086, True, 1.011, 0.151598
2023/07/06 14:00:52.590, True, 0.664, 0.152132
2023/07/06 14:00:53.093, True, 0.662, 0.149615
2023/07/06 14:00:53.598, True, 0.663, 0.154879
2023/07/06 14:00:54.094, True, 1.011, 0.152132
2023/07/06 14:00:54.598, True, 0.663, 0.151369
2023/07/06 14:00:55.102, True, 0.663, 0.153201
2023/07/06 14:00:55.598, True, 0.674, 0.152361
2023/07/06 14:00:56.102, True, 0.995, 0.150301
2023/07/06 14:00:56.606, True, 0.664, 0.151827
2023/07/06 14:00:57.102, True, 0.673, 0.152285
2023/07/06 14:00:57.606, True, 0.663, 0.151904
2023/07/06 14:00:58.110, True, 0.995, 0.151904
2023/07/06 14:00:58.606, True, 0.675, 0.151675
2023/07/06 14:00:59.110, True, 0.662, 0.151217
2023/07/06 14:00:59.614, True, 0.663, 0.153582
2023/07/06 14:01:00.110, True, 1.011, 0.152438
2023/07/06 14:01:00.614, True, 0.663, 0.153658
2023/07/06 14:01:01.118, True, 0.663, 0.151293
2023/07/06 14:01:01.614, True, 1.011, 0.152132
2023/07/06 14:01:02.118, True, 0.664, 0.151446
2023/07/06 14:01:02.622, True, 0.662, 0.151293
2023/07/06 14:01:03.118, True, 0.674, 0.153124
2023/07/06 14:01:03.622, True, 0.663, 0.151751
2023/07/06 14:01:04.126, True, 0.663, 0.155642
2023/07/06 14:01:04.622, True, 0.674, 0.153582
2023/07/06 14:01:05.126, True, 0.664, 0.152361
2023/07/06 14:01:05.630, True, 0.662, 0.151904
2023/07/06 14:01:06.126, True, 1.011, 0.151980
2023/07/06 14:01:06.630, True, 0.663, 0.150988
2023/07/06 14:01:07.126, True, 0.674, 0.152209
2023/07/06 14:01:07.630, True, 0.663, 0.151064
2023/07/06 14:01:08.134, True, 0.663, 0.155489
2023/07/06 14:01:08.638, True, 0.995, 0.152819
2023/07/06 14:01:09.134, True, 0.674, 0.154879
2023/07/06 14:01:09.638, True, 0.663, 0.154269
2023/07/06 14:01:10.142, True, 0.663, 0.151675
2023/07/06 14:01:10.638, True, 0.674, 0.151369
2023/07/06 14:01:11.142, True, 0.663, 0.153964
2023/07/06 14:01:11.638, True, 0.674, 0.152972
2023/07/06 14:01:12.142, True, 0.995, 0.152209
2023/07/06 14:01:12.646, True, 0.664, 0.153811
2023/07/06 14:01:13.150, True, 0.663, 0.152514
2023/07/06 14:01:13.646, True, 0.673, 0.152209
2023/07/06 14:01:14.150, True, 0.663, 0.152514
2023/07/06 14:01:14.654, True, 0.995, 0.153811
2023/07/06 14:01:15.150, True, 0.674, 0.152895
2023/07/06 14:01:15.654, True, 0.663, 0.151827
2023/07/06 14:01:16.158, True, 0.663, 0.153658
2023/07/06 14:01:16.654, True, 0.674, 0.152590
2023/07/06 14:01:17.158, True, 0.996, 0.151980
2023/07/06 14:01:17.662, True, 0.663, 0.152132
2023/07/06 14:01:18.158, True, 0.674, 0.153658
2023/07/06 14:01:18.662, True, 0.663, 0.152438
2023/07/06 14:01:19.166, True, 0.663, 0.152895
2023/07/06 14:01:19.662, True, 0.674, 0.155566
2023/07/06 14:01:20.166, True, 0.664, 0.154803
2023/07/06 14:01:20.670, True, 0.993, 0.154879
2023/07/06 14:01:21.174, True, 0.663, 0.153582
2023/07/06 14:01:21.670, True, 0.674, 0.153735
2023/07/06 14:01:22.174, True, 0.663, 0.155337
2023/07/06 14:01:22.678, True, 0.663, 0.154650
2023/07/06 14:01:23.174, True, 1.010, 0.153277
2023/07/06 14:01:23.678, True, 0.663, 0.153201
2023/07/06 14:01:24.182, True, 0.663, 0.153811
2023/07/06 14:01:24.678, True, 0.674, 0.155184
2023/07/06 14:01:25.182, True, 0.663, 0.157855
2023/07/06 14:01:25.686, True, 0.663, 0.153048
2023/07/06 14:01:26.182, True, 1.011, 0.154955
2023/07/06 14:01:26.686, True, 0.664, 0.156329
2023/07/06 14:01:27.190, True, 0.663, 0.154345
2023/07/06 14:01:27.686, True, 0.674, 0.156405
2023/07/06 14:01:28.190, True, 0.663, 0.155261
2023/07/06 14:01:28.686, True, 1.011, 0.152438
2023/07/06 14:01:29.190, True, 0.663, 0.156329
2023/07/06 14:01:29.694, True, 0.663, 0.156786
2023/07/06 14:01:30.190, True, 0.674, 0.154421
2023/07/06 14:01:30.694, True, 0.663, 0.154650
2023/07/06 14:01:31.198, True, 0.995, 0.155489
2023/07/06 14:01:31.694, True, 0.674, 0.154803
2023/07/06 14:01:32.198, True, 0.663, 0.157702
2023/07/06 14:01:32.702, True, 0.995, 0.157397
2023/07/06 14:01:33.198, True, 0.674, 0.156405
2023/07/06 14:01:33.702, True, 0.663, 0.157855
2023/07/06 14:01:34.206, True, 0.663, 0.154879
2023/07/06 14:01:34.702, True, 0.674, 0.158389
2023/07/06 14:01:35.206, True, 0.995, 0.157092
2023/07/06 14:01:35.710, True, 0.663, 0.158083
2023/07/06 14:01:36.206, True, 0.674, 0.159380
2023/07/06 14:01:36.710, True, 0.663, 0.159152
2023/07/06 14:01:37.214, True, 0.663, 0.156481
2023/07/06 14:01:37.710, True, 0.674, 0.159075
2023/07/06 14:01:38.214, True, 0.663, 0.159686
2023/07/06 14:01:38.718, True, 0.995, 0.158312
2023/07/06 14:01:39.214, True, 0.674, 0.159457
2023/07/06 14:01:39.718, True, 0.663, 0.157092
2023/07/06 14:01:40.222, True, 0.663, 0.159915
2023/07/06 14:01:40.718, True, 1.011, 0.159152
2023/07/06 14:01:41.222, True, 0.663, 0.158846
2023/07/06 14:01:41.726, True, 0.663, 0.158846
2023/07/06 14:01:42.230, True, 0.663, 0.160601
2023/07/06 14:01:42.726, True, 1.011, 0.159304
2023/07/06 14:01:43.230, True, 0.663, 0.159304
2023/07/06 14:01:43.734, True, 0.663, 0.160143
2023/07/06 14:01:44.231, True, 0.674, 0.158541
2023/07/06 14:01:44.734, True, 0.663, 0.160678
2023/07/06 14:01:45.238, True, 0.664, 0.157855
2023/07/06 14:01:45.734, True, 1.009, 0.158083
2023/07/06 14:01:46.238, True, 0.663, 0.160601
2023/07/06 14:01:46.742, True, 0.664, 0.158923
2023/07/06 14:01:47.238, True, 0.673, 0.158465
2023/07/06 14:01:47.742, True, 0.663, 0.156939
2023/07/06 14:01:48.246, True, 0.663, 0.163348
2023/07/06 14:01:48.742, True, 0.674, 0.160983
2023/07/06 14:01:49.246, True, 0.995, 0.157778
2023/07/06 14:01:49.742, True, 0.674, 0.158923
2023/07/06 14:01:50.246, True, 0.663, 0.158389
2023/07/06 14:01:50.750, True, 0.663, 0.160220
2023/07/06 14:01:51.246, True, 1.011, 0.163729
2023/07/06 14:01:51.750, True, 0.663, 0.159228
2023/07/06 14:01:52.255, True, 0.664, 0.159838
2023/07/06 14:01:52.750, True, 0.674, 0.160449
2023/07/06 14:01:53.254, True, 0.995, 0.159762
2023/07/06 14:01:53.758, True, 0.664, 0.160830
2023/07/06 14:01:54.254, True, 0.673, 0.159457
2023/07/06 14:01:54.758, True, 0.663, 0.159609
2023/07/06 14:01:55.262, True, 0.663, 0.162280
2023/07/06 14:01:55.758, True, 0.674, 0.162661
2023/07/06 14:01:56.262, True, 0.995, 0.159838
2023/07/06 14:01:56.766, True, 0.663, 0.160906
2023/07/06 14:01:57.262, True, 0.674, 0.159152
2023/07/06 14:01:57.766, True, 0.663, 0.162280
2023/07/06 14:01:58.270, True, 0.663, 0.162814
2023/07/06 14:01:58.766, True, 0.674, 0.159533
2023/07/06 14:01:59.270, True, 0.995, 0.160754
2023/07/06 14:01:59.766, True, 0.675, 0.161135
2023/07/06 14:02:00.270, True, 0.663, 0.159152
2023/07/06 14:02:00.774, True, 0.664, 0.158618
2023/07/06 14:02:01.278, True, 0.993, 0.159075
2023/07/06 14:02:01.775, True, 0.674, 0.160143
2023/07/06 14:02:02.278, True, 0.663, 0.158846
2023/07/06 14:02:02.783, True, 0.664, 0.160830
2023/07/06 14:02:03.286, True, 0.994, 0.159228
2023/07/06 14:02:03.782, True, 0.675, 0.158312
2023/07/06 14:02:04.286, True, 0.663, 0.158541
2023/07/06 14:02:04.790, True, 0.663, 0.161669
2023/07/06 14:02:05.286, True, 0.674, 0.159686
2023/07/06 14:02:05.790, True, 0.664, 0.157855
2023/07/06 14:02:06.294, True, 0.662, 0.159762
2023/07/06 14:02:06.790, True, 0.674, 0.159152
2023/07/06 14:02:07.294, True, 0.995, 0.159991
2023/07/06 14:02:07.798, True, 0.663, 0.162127
2023/07/06 14:02:08.294, True, 0.674, 0.159152
2023/07/06 14:02:08.798, True, 0.663, 0.162585
2023/07/06 14:02:09.302, True, 0.995, 0.159686
2023/07/06 14:02:09.798, True, 0.674, 0.158160
2023/07/06 14:02:10.302, True, 0.663, 0.160830
2023/07/06 14:02:10.806, True, 0.663, 0.160296
2023/07/06 14:02:11.310, True, 0.663, 0.160601
2023/07/06 14:02:11.805, True, 1.011, 0.160983
2023/07/06 14:02:12.310, True, 0.663, 0.159075
2023/07/06 14:02:12.814, True, 0.664, 0.161440
2023/07/06 14:02:13.310, True, 0.673, 0.159838
2023/07/06 14:02:13.814, True, 0.663, 0.159533
2023/07/06 14:02:14.318, True, 0.995, 0.161440
2023/07/06 14:02:14.814, True, 0.674, 0.159075
2023/07/06 14:02:15.318, True, 0.663, 0.158541
2023/07/06 14:02:15.822, True, 0.663, 0.159915
2023/07/06 14:02:16.318, True, 1.011, 0.158083
2023/07/06 14:02:16.822, True, 0.664, 0.159075
2023/07/06 14:02:17.326, True, 0.663, 0.160143
2023/07/06 14:02:17.822, True, 0.674, 0.158007
2023/07/06 14:02:18.326, True, 0.663, 0.161517
2023/07/06 14:02:18.830, True, 0.663, 0.159609
2023/07/06 14:02:19.326, True, 1.012, 0.159762
2023/07/06 14:02:19.830, True, 0.664, 0.159915
2023/07/06 14:02:20.334, True, 0.662, 0.161822
2023/07/06 14:02:20.830, True, 1.010, 0.161746
2023/07/06 14:02:21.334, True, 0.664, 0.160525
2023/07/06 14:02:21.838, True, 0.663, 0.159304
2023/07/06 14:02:22.334, True, 0.674, 0.161364
2023/07/06 14:02:22.838, True, 0.663, 0.158236
2023/07/06 14:02:23.342, True, 0.663, 0.159686
2023/07/06 14:02:23.838, True, 1.011, 0.161212
2023/07/06 14:02:24.342, True, 0.662, 0.160983
2023/07/06 14:02:24.846, True, 0.663, 0.159533
2023/07/06 14:02:25.342, True, 0.675, 0.159686
2023/07/06 14:02:25.846, True, 0.662, 0.159609
2023/07/06 14:02:26.351, True, 0.663, 0.159075
2023/07/06 14:02:26.846, True, 0.675, 0.160296
2023/07/06 14:02:27.350, True, 0.993, 0.159609
2023/07/06 14:02:27.854, True, 0.664, 0.159609
2023/07/06 14:02:28.350, True, 0.673, 0.160754
2023/07/06 14:02:28.854, True, 0.664, 0.160525
2023/07/06 14:02:29.358, True, 0.663, 0.161288
2023/07/06 14:02:29.854, True, 1.011, 0.159152
2023/07/06 14:02:30.358, True, 0.664, 0.159838
2023/07/06 14:02:30.861, True, 0.662, 0.160449
2023/07/06 14:02:31.358, True, 0.675, 0.159609
2023/07/06 14:02:31.862, True, 0.663, 0.159915
2023/07/06 14:02:32.367, True, 0.993, 0.159609
2023/07/06 14:02:32.871, True, 0.663, 0.160525
2023/07/06 14:02:33.366, True, 0.674, 0.159380
2023/07/06 14:02:33.870, True, 0.663, 0.160372
2023/07/06 14:02:34.375, True, 0.663, 0.161440
2023/07/06 14:02:34.870, True, 0.674, 0.161364
2023/07/06 14:02:35.374, True, 0.663, 0.161288
2023/07/06 14:02:35.879, True, 0.664, 0.159152
2023/07/06 14:02:36.374, True, 1.010, 0.160906
2023/07/06 14:02:36.879, True, 0.663, 0.159533
2023/07/06 14:02:37.382, True, 0.663, 0.160678
2023/07/06 14:02:37.878, True, 0.675, 0.160067
2023/07/06 14:02:38.383, True, 0.662, 0.162127
2023/07/06 14:02:38.886, True, 0.995, 0.158083
2023/07/06 14:02:39.382, True, 0.674, 0.159915
2023/07/06 14:02:39.886, True, 0.663, 0.158160
2023/07/06 14:02:40.390, True, 0.664, 0.158541
2023/07/06 14:02:40.886, True, 0.673, 0.159991
2023/07/06 14:02:41.389, True, 0.663, 0.160601
2023/07/06 14:02:41.894, True, 0.995, 0.161517
2023/07/06 14:02:42.390, True, 0.674, 0.160678
2023/07/06 14:02:42.894, True, 0.663, 0.160601
2023/07/06 14:02:43.399, True, 0.663, 0.159075
2023/07/06 14:02:43.895, True, 1.011, 0.162432
2023/07/06 14:02:44.399, True, 0.663, 0.159762
2023/07/06 14:02:44.902, True, 0.663, 0.159304
2023/07/06 14:02:45.398, True, 0.674, 0.159228
2023/07/06 14:02:45.902, True, 0.663, 0.159075
2023/07/06 14:02:46.407, True, 0.663, 0.158846
2023/07/06 14:02:46.910, True, 0.996, 0.159762
2023/07/06 14:02:47.406, True, 0.673, 0.159457
2023/07/06 14:02:47.910, True, 0.664, 0.161669
2023/07/06 14:02:48.414, True, 0.662, 0.158389
2023/07/06 14:02:48.910, True, 0.674, 0.159915
2023/07/06 14:02:49.414, True, 0.663, 0.160601
2023/07/06 14:02:49.919, True, 0.664, 0.160601
2023/07/06 14:02:50.422, True, 0.662, 0.158541
2023/07/06 14:02:50.927, True, 0.995, 0.159991
2023/07/06 14:02:51.422, True, 0.674, 0.161288
2023/07/06 14:02:51.927, True, 0.663, 0.162051
2023/07/06 14:02:52.422, True, 0.674, 0.161440
2023/07/06 14:02:52.927, True, 0.663, 0.157702
2023/07/06 14:02:53.430, True, 0.663, 0.161212
2023/07/06 14:02:53.933, True, 0.664, 0.159686
2023/07/06 14:02:54.431, True, 0.674, 0.160296
2023/07/06 14:02:54.935, True, 0.662, 0.160296
2023/07/06 14:02:55.438, True, 0.663, 0.159304
2023/07/06 14:02:55.935, True, 1.011, 0.159686
2023/07/06 14:02:56.438, True, 0.663, 0.163653
2023/07/06 14:02:56.934, True, 0.674, 0.161746
2023/07/06 14:02:57.438, True, 0.663, 0.159686
2023/07/06 14:02:57.942, True, 0.663, 0.160754
2023/07/06 14:02:58.438, True, 0.674, 0.161440
2023/07/06 14:02:58.942, True, 0.663, 0.161135
2023/07/06 14:02:59.447, True, 0.996, 0.161669
2023/07/06 14:02:59.942, True, 0.673, 0.165408
2023/07/06 14:03:00.446, True, 0.663, 0.160754
2023/07/06 14:03:00.950, True, 0.663, 0.158007
2023/07/06 14:03:01.446, True, 0.674, 0.161059
2023/07/06 14:03:01.950, True, 0.662, 0.158999
2023/07/06 14:03:02.454, True, 0.664, 0.161746
2023/07/06 14:03:02.950, True, 1.009, 0.159915
2023/07/06 14:03:03.454, True, 0.664, 0.159457
2023/07/06 14:03:03.958, True, 0.663, 0.159915
2023/07/06 14:03:04.462, True, 0.995, 0.160906
2023/07/06 14:03:04.959, True, 0.674, 0.159686
2023/07/06 14:03:05.462, True, 0.663, 0.160449
2023/07/06 14:03:05.966, True, 0.663, 0.160372
2023/07/06 14:03:06.462, True, 0.675, 0.160372
2023/07/06 14:03:06.966, True, 0.662, 0.160296
2023/07/06 14:03:07.470, True, 0.995, 0.157473
2023/07/06 14:03:07.966, True, 0.674, 0.161288
2023/07/06 14:03:08.470, True, 0.663, 0.158999
2023/07/06 14:03:08.974, True, 0.663, 0.159991
2023/07/06 14:03:09.478, True, 0.663, 0.160220
2023/07/06 14:03:09.974, True, 0.674, 0.162051
2023/07/06 14:03:10.479, True, 0.995, 0.160830
2023/07/06 14:03:10.982, True, 0.663, 0.160906
2023/07/06 14:03:11.479, True, 0.674, 0.159915
2023/07/06 14:03:11.982, True, 0.663, 0.160143
2023/07/06 14:03:12.486, True, 0.664, 0.158846
2023/07/06 14:03:12.982, True, 0.673, 0.159152
2023/07/06 14:03:13.486, True, 0.663, 0.161822
2023/07/06 14:03:13.982, True, 0.674, 0.159533
2023/07/06 14:03:14.486, True, 0.663, 0.161364
2023/07/06 14:03:14.990, True, 0.663, 0.162051
2023/07/06 14:03:15.486, True, 1.011, 0.160220
2023/07/06 14:03:15.991, True, 0.664, 0.158618
2023/07/06 14:03:16.495, True, 0.663, 0.161669
2023/07/06 14:03:16.990, True, 0.674, 0.160372
2023/07/06 14:03:17.495, True, 0.663, 0.160678
2023/07/06 14:03:17.999, True, 0.995, 0.161898
2023/07/06 14:03:18.495, True, 0.674, 0.159228
2023/07/06 14:03:18.999, True, 0.663, 0.159304
2023/07/06 14:03:19.502, True, 0.663, 0.159686
2023/07/06 14:03:19.998, True, 0.674, 0.159762
2023/07/06 14:03:20.502, True, 0.663, 0.160525
2023/07/06 14:03:21.007, True, 0.995, 0.162585
2023/07/06 14:03:21.502, True, 0.674, 0.159991
2023/07/06 14:03:22.007, True, 0.664, 0.159915
2023/07/06 14:03:22.510, True, 0.662, 0.161593
2023/07/06 14:03:23.006, True, 0.674, 0.159152
2023/07/06 14:03:23.510, True, 0.663, 0.159991
2023/07/06 14:03:24.014, True, 0.995, 0.160372
2023/07/06 14:03:24.519, True, 0.664, 0.159152
2023/07/06 14:03:25.014, True, 0.673, 0.160220
2023/07/06 14:03:25.518, True, 0.663, 0.158846
2023/07/06 14:03:26.022, True, 0.663, 0.159762
2023/07/06 14:03:26.518, True, 0.674, 0.160296
2023/07/06 14:03:27.022, True, 0.995, 0.160830
2023/07/06 14:03:27.518, True, 0.674, 0.159609
2023/07/06 14:03:28.022, True, 0.663, 0.160678
2023/07/06 14:03:28.527, True, 0.663, 0.160449
2023/07/06 14:03:29.030, True, 0.663, 0.161059
2023/07/06 14:03:29.526, True, 1.011, 0.161059
2023/07/06 14:03:30.030, True, 0.663, 0.161517
2023/07/06 14:03:30.534, True, 0.663, 0.161364
2023/07/06 14:03:31.030, True, 0.674, 0.159152
2023/07/06 14:03:31.535, True, 0.995, 0.159304
2023/07/06 14:03:32.039, True, 0.663, 0.160372
2023/07/06 14:03:32.534, True, 0.674, 0.160601
2023/07/06 14:03:33.038, True, 0.664, 0.161898
2023/07/06 14:03:33.535, True, 0.673, 0.160830
2023/07/06 14:03:34.039, True, 0.995, 0.158312
2023/07/06 14:03:34.542, True, 0.663, 0.162127
2023/07/06 14:03:35.038, True, 0.674, 0.159228
2023/07/06 14:03:35.542, True, 0.663, 0.159304
2023/07/06 14:03:36.047, True, 0.995, 0.159228
2023/07/06 14:03:36.542, True, 0.674, 0.160601
2023/07/06 14:03:37.046, True, 0.663, 0.159991
2023/07/06 14:03:37.551, True, 0.663, 0.158007
2023/07/06 14:03:38.054, True, 0.663, 0.156329
2023/07/06 14:03:38.550, True, 0.674, 0.158694
2023/07/06 14:03:39.054, True, 0.663, 0.159838
2023/07/06 14:03:39.559, True, 0.664, 0.159762
2023/07/06 14:03:40.055, True, 0.673, 0.160983
2023/07/06 14:03:40.558, True, 0.995, 0.160449
2023/07/06 14:03:41.062, True, 0.663, 0.158694
2023/07/06 14:03:41.559, True, 0.674, 0.158083
2023/07/06 14:03:42.062, True, 0.663, 0.160601
2023/07/06 14:03:42.566, True, 0.663, 0.159075
2023/07/06 14:03:43.062, True, 0.674, 0.160220
2023/07/06 14:03:43.567, True, 0.663, 0.160372
2023/07/06 14:03:44.071, True, 0.996, 0.159609
2023/07/06 14:03:44.566, True, 0.673, 0.158694
2023/07/06 14:03:45.071, True, 0.663, 0.158694
2023/07/06 14:03:45.575, True, 0.663, 0.159533
2023/07/06 14:03:46.071, True, 0.674, 0.160220
2023/07/06 14:03:46.575, True, 0.663, 0.162814
2023/07/06 14:03:47.078, True, 0.994, 0.159075
2023/07/06 14:03:47.575, True, 0.674, 0.157626
2023/07/06 14:03:48.079, True, 0.664, 0.159457
2023/07/06 14:03:48.582, True, 0.662, 0.159915
2023/07/06 14:03:49.079, True, 0.675, 0.159762
2023/07/06 14:03:49.582, True, 0.993, 0.159228
2023/07/06 14:03:50.086, True, 0.663, 0.160372
2023/07/06 14:03:50.582, True, 0.674, 0.158999
2023/07/06 14:03:51.087, True, 0.663, 0.160449
2023/07/06 14:03:51.591, True, 0.665, 0.160983
2023/07/06 14:03:52.087, True, 0.673, 0.160143
2023/07/06 14:03:52.590, True, 0.997, 0.159304
2023/07/06 14:03:53.095, True, 0.662, 0.160372
2023/07/06 14:03:53.591, True, 0.674, 0.157931
2023/07/06 14:03:54.094, True, 0.662, 0.160449
2023/07/06 14:03:54.599, True, 0.995, 0.159915
2023/07/06 14:03:55.102, True, 0.663, 0.161669
2023/07/06 14:03:55.599, True, 0.674, 0.161517
2023/07/06 14:03:56.102, True, 0.664, 0.158694
2023/07/06 14:03:56.607, True, 0.662, 0.160678
2023/07/06 14:03:57.102, True, 0.675, 0.160525
2023/07/06 14:03:57.607, True, 0.994, 0.161746
2023/07/06 14:03:58.111, True, 0.663, 0.159991
2023/07/06 14:03:58.607, True, 0.675, 0.157397
2023/07/06 14:03:59.110, True, 0.662, 0.160449
2023/07/06 14:03:59.615, True, 0.663, 0.159686
2023/07/06 14:04:00.111, True, 0.674, 0.162051
2023/07/06 14:04:00.614, True, 0.995, 0.160601
2023/07/06 14:04:01.118, True, 0.663, 0.159762
2023/07/06 14:04:01.615, True, 0.674, 0.160067
2023/07/06 14:04:02.118, True, 0.664, 0.160906
2023/07/06 14:04:02.622, True, 0.663, 0.161593
2023/07/06 14:04:03.119, True, 0.674, 0.160830
2023/07/06 14:04:03.622, True, 0.663, 0.160754
2023/07/06 14:04:04.119, True, 0.674, 0.159991
2023/07/06 14:04:04.622, True, 0.663, 0.156710
2023/07/06 14:04:05.127, True, 0.995, 0.158083
2023/07/06 14:04:05.622, True, 0.673, 0.158541
2023/07/06 14:04:06.127, True, 0.663, 0.155947
2023/07/06 14:04:06.631, True, 0.663, 0.158312
2023/07/06 14:04:07.127, True, 0.674, 0.157931
2023/07/06 14:04:07.631, True, 0.663, 0.158541
2023/07/06 14:04:08.134, True, 0.995, 0.158618
2023/07/06 14:04:08.631, True, 0.674, 0.158923
2023/07/06 14:04:09.135, True, 0.663, 0.159457
2023/07/06 14:04:09.639, True, 0.663, 0.159609
2023/07/06 14:04:10.135, True, 0.674, 0.158999
2023/07/06 14:04:10.639, True, 0.995, 0.159228
2023/07/06 14:04:11.142, True, 0.663, 0.158236
2023/07/06 14:04:11.639, True, 0.674, 0.160143
2023/07/06 14:04:12.142, True, 0.663, 0.160372
2023/07/06 14:04:12.647, True, 0.663, 0.158389
2023/07/06 14:04:13.142, True, 0.674, 0.159152
2023/07/06 14:04:13.646, True, 0.664, 0.158007
2023/07/06 14:04:14.151, True, 0.994, 0.156863